Location: Unspecified
(0.0000°N, 0.0000°E)
Time: 21:51:51
(UTC+00:00)

Vela 4A - Pass Details

Date: 29 November 2021
Orbit: 58523 x 164212 km, 32.1° (Epoch: 09 January)

Event Time Altitude Azimuth Distance (km) Brightness Sun altitude
Rises 15:36:54 0° 95° (E) 131,859 ? 30.3°
Reaches altitude 10° 16:22:38 10° 95° (E) 132,674 ? 19.9°
Maximum altitude 22:09:46 88° 4° (N) 140,508 ? -57.6°
Drops below altitude 10° 03:53:21 10° 277° (W) 155,625 ? -26.6°
Sets 04:37:45 0° 278° (W) 157,822 ? -16.4°
